Home   Weather   Cagliari   Past weeks

Flag for Italy Past Weather in Cagliari, Italy — Yesterday and Last 2 Weeks

Now
82 °F

Passing clouds.


Feels Like: 85 °F
Forecast: 72 / 87 °F
Wind: 8 mph from South

Location: Cagliari / Elmas

Current Time: Jun 28, 2017 at 4:00:44 am

Latest Report: Jun 28, 2017 at 3:20 am


Visibility: N/A

Pressure: 29.74 "Hg

Humidity: 58%

Dew Point: 66 °F

Location of CagliariLocation

Past Weather in Cagliari — Graph

°F

Cagliari Temperature Yesterday

Maximum temperature yesterday: 97 °F (at 5:50 pm)
Minimum temperature yesterday: 77 °F (at 5:50 am)
Average temperature yesterday: 87 °F

High & Low Weather Summary for the Past Weeks

 TemperatureHumidityPressure
High99 °F (Jun 16, 12:50 pm)100% (Jun 16, 5:50 am)30.15 "Hg (Jun 16, 5:50 am)
Low64 °F (Jun 13, 6:20 am)22% (Jun 25, 5:20 pm)29.77 "Hg (Jun 27, 5:50 pm)
Average80 °F64%29.99 "Hg
* Reported Jun 13 2:20 am — Jun 28 2:20 am, Cagliari. Weather by CustomWeather, © 2017

Note: Actual official high and low records may vary slightly from our data, if they occured in-between our weather recording intervals... More about our weather records

Advertising

Cagliari Weather History for the Previous 24 Hours

Scroll right to see more
 ConditionsComfort  
Time TempWeatherWind HumidityBarometerVisibility
2:20 am
Wed, Jun 28
82 °FSprinkles. Passing clouds.14 mph51%29.77 "HgN/A
1:50 am82 °FSprinkles. Passing clouds.21 mph55%29.83 "HgN/A
1:20 am84 °FPassing clouds.6 mph45%29.86 "HgN/A
12:50 am86 °FPassing clouds.13 mph43%29.92 "HgN/A
12:20 am82 °FLight rain. Passing clouds.13 mph58%29.92 "HgN/A
11:50 pm
Tue, Jun 27
84 °FPassing clouds.3 mph45%29.83 "HgN/A
11:20 pm84 °FClear.6 mph45%29.83 "Hg10 mi
10:50 pm84 °FPassing clouds.7 mph43%29.83 "HgN/A
10:20 pm86 °FClear.6 mph40%29.83 "Hg10 mi
9:50 pm88 °FClear.7 mph38%29.80 "Hg10 mi
9:20 pm90 °FPassing clouds.5 mph38%29.80 "HgN/A
8:50 pm91 °FSunny.6 mph32%29.77 "Hg10 mi
8:20 pm91 °FPassing clouds.7 mph49%29.77 "HgN/A
7:50 pm95 °FSunny.10 mph28%29.77 "Hg10 mi
7:20 pm95 °FSunny.2 mph44%29.80 "Hg10 mi
6:50 pm93 °FSunny.6 mph49%29.77 "Hg10 mi
6:20 pm93 °FPassing clouds.7 mph53%29.77 "HgN/A
5:50 pm97 °FSunny.8 mph39%29.77 "Hg10 mi
5:20 pm95 °FSunny.10 mph41%29.80 "Hg10 mi
4:50 pm93 °FSunny.10 mph49%29.80 "Hg10 mi
4:20 pm95 °FSunny.10 mph47%29.80 "Hg10 mi
3:50 pm93 °FSunny.9 mph53%29.80 "Hg10 mi
3:20 pm93 °FSunny.12 mph47%29.80 "Hg10 mi
2:50 pm95 °FSunny.8 mph41%29.80 "Hg10 mi
1:50 pm91 °FPassing clouds.8 mph49%29.83 "HgN/A
1:20 pm90 °FSunny.9 mph52%29.83 "Hg10 mi
12:50 pm91 °FSunny.7 mph52%29.83 "Hg10 mi
12:20 pm95 °FPassing clouds.8 mph34%29.83 "HgN/A
11:50 am93 °FSunny.9 mph36%29.83 "Hg10 mi
11:20 am91 °FPassing clouds.8 mph44%29.83 "HgN/A
10:50 am90 °FPassing clouds.7 mph49%29.83 "HgN/A
10:20 am86 °FPassing clouds.8 mph55%29.83 "HgN/A
9:50 am84 °FPassing clouds.9 mph58%29.83 "HgN/A
9:20 am84 °FSunny.9 mph62%29.83 "Hg10 mi
8:50 am82 °FSunny.9 mph62%29.83 "Hg10 mi
8:20 am82 °FSunny.10 mph62%29.80 "Hg10 mi
7:50 am81 °FSunny.9 mph70%29.80 "Hg10 mi
7:20 am79 °FSunny.10 mph74%29.80 "Hg10 mi
6:50 am79 °FSunny.9 mph74%29.80 "Hg10 mi
6:20 am77 °FPassing clouds.6 mph83%29.80 "HgN/A
5:50 am77 °FClear.3 mph74%29.80 "Hg10 mi
5:20 am79 °FPassing clouds.6 mph79%29.80 "HgN/A
4:50 am79 °FClear.5 mph70%29.80 "Hg10 mi
4:20 am79 °FClear.3 mph70%29.80 "Hg10 mi
Weather by CustomWeather, © 2017

See weather overviewHow to use our weather pages